This is the latest recevied weather packets stored in our database for station/object GBTWP-2. If no packets are shown the sender has not sent any weather packets the latest 10 day(s).
| Time | Temp. | Humidity | Pressure | Rain* | Wind** | Luminosity | Snow |
|---|---|---|---|---|---|---|---|
| 1787418120 | 20° C | 88% | 1013.8 hPa | 0 mm | - | 401 W/m² | - |
| 1787417820 | 18.89° C | 92% | 1013.9 hPa | 0 mm | - | 508 W/m² | - |
| 1787417519 | 18.89° C | 93% | 1014 hPa | 0 mm | - | 357 W/m² | - |
| 1787417220 | 18.33° C | 95% | 1014 hPa | 0 mm | - | 317 W/m² | - |
| 1787416920 | 18.33° C | 95% | 1014.1 hPa | 0 mm | - | 273 W/m² | - |
| 1787416620 | 17.78° C | 96% | 1013.9 hPa | 0 mm | - | 248 W/m² | - |
| 1787416319 | 17.78° C | 96% | 1013.6 hPa | 0 mm | - | 229 W/m² | - |
| 1787416020 | 17.78° C | 97% | 1013.8 hPa | 0 mm | - | 213 W/m² | - |
| 1787415719 | 17.78° C | 97% | 1013.9 hPa | 0 mm | - | 185 W/m² | - |
| 1787415420 | 17.22° C | 97% | 1014.2 hPa | 0 mm | - | 150 W/m² | - |
| 1787415119 | 17.22° C | 97% | 1014 hPa | 0 mm | - | 121 W/m² | - |
| 1787414820 | 17.22° C | 97% | 1014 hPa | 0 mm | - | 94 W/m² | - |
| 1787414519 | 17.22° C | 97% | 1013.9 hPa | 0 mm | - | 73 W/m² | - |
| 1787414220 | 17.22° C | 97% | 1014.3 hPa | 0 mm | - | 64 W/m² | - |
| 1787413918 | 17.22° C | 97% | 1013.9 hPa | 0 mm | - | 63 W/m² | - |
| 1787413621 | 16.67° C | 97% | 1013.9 hPa | 0 mm | - | 60 W/m² | - |
| 1787413319 | 16.67° C | 97% | 1013.9 hPa | 0 mm | - | 52 W/m² | - |
| 1787413020 | 16.67° C | 97% | 1013.9 hPa | 0 mm | - | 40 W/m² | - |
| 1787412719 | 16.67° C | 97% | 1013.7 hPa | 0 mm | - | 31 W/m² | - |
| 1787412420 | 16.67° C | 97% | 1013.9 hPa | 0 mm | - | 26 W/m² | - |
| 1787412120 | 16.67° C | 97% | 1014.1 hPa | 0 mm | - | 21 W/m² | - |
| 1787411819 | 16.67° C | 97% | 1014.4 hPa | 0 mm | - | 15 W/m² | - |
| 1787411520 | 16.67° C | 97% | 1014.3 hPa | 0 mm | - | 12 W/m² | - |
| 1787411220 | 16.67° C | 97% | 1014.5 hPa | 0 mm | - | 12 W/m² | - |
| 1787410921 | 16.67° C | 97% | 1014.6 hPa | 0 mm | - | 11 W/m² | - |
* Rain latest hour (hover to see other rain measurements)
** Current wind speed in m/s (hover to see current wind gust speed)